Location: Mequon Rotary Park
(43.2522°N, 87.9594°W)
Time: 10:40:08
(UTC-05:00)

Daily predictions for brighter satellites

Satellite Brightness Start Highest point End
(mag) Time Altitude Azimuth Time Altitude Azimuth Time Altitude Azimuth
Okean 1 3.5 20:46:43 10° S 20:50:45 82° W 20:54:51 10° N
ATLAS 3B R/B 3.4 20:45:04 10° SW 20:52:10 63° NW 20:59:01 10° NNE
Resurs 01 Rocket 1.7 20:47:49 10° SSE 20:52:13 85° WSW 20:56:39 10° NNW
Cosmos 990 Rocket 4.2 20:47:41 10° NNW 20:52:52 58° ENE 20:58:01 10° SE
H-2A R/B 3.1 20:49:21 10° ESE 20:53:31 28° ENE 20:57:47 10° N
Meteor 2-4 Rocket 4.3 20:49:42 10° SSE 20:54:36 36° E 20:59:39 10° NNE
Cosmos 2208 Rocket 4.1 20:50:41 10° SSW 20:55:53 84° WNW 21:01:06 10° NNE
Lacrosse 5 rocket 2.6 20:53:48 10° NW 20:57:51 34° NNE 21:01:39 10° E
Aureole 2 Rocket 3.4 20:55:47 10° N 20:58:15 23° ENE 21:00:35 10° ESE
ARGOS 3.7 20:57:13 10° SE 21:02:16 43° ENE 21:07:23 10° N
Cosmos 1939 Rocket 4.1 21:00:37 10° S 21:04:33 44° W 21:08:33 10° NNW
Cosmos 2322 Rocket 2.2 21:00:11 10° NNW 21:05:50 86° ENE 21:11:27 10° SSE
NOAA 11 4.3 21:00:43 10° SSE 21:06:11 86° WSW 21:11:40 10° NNW
Cosmos 1242 Rocket 2.6 21:06:51 10° NNW 21:10:32 82° W 21:14:07 10° S
SL-16 R/B 2.4 21:10:20 10° NNW 21:16:01 75° WSW 21:21:39 10° SSE
CZ-4B DEB 4.4 21:13:10 10° SSE 21:16:38 78° ENE 21:20:08 10° N
Cosmos 2150 Rocket 4.1 21:15:34 10° NNW 21:20:58 72° ENE 21:25:55 12° SSE
Cosmos 1340 Rocket 3.1 21:19:21 10° S 21:23:15 48° E 21:27:11 10° NNE
BREEZE-M R/B 3.5 21:21:54 10° W 21:26:01 46° NNW 21:28:37 10° NE
Cosmos 540 Rocket 4.0 21:24:09 10° S 21:28:54 39° ESE 21:33:42 10° NE
MetOp-B 4.3 21:23:56 11° SSE 21:28:56 62° ENE 21:34:14 10° N
Spot 2 Rocket 4.3 21:27:08 10° S 21:32:00 49° W 21:36:54 10° NNW
Cosmos 2034 Rocket 4.4 21:29:18 10° SSE 21:34:58 44° E 21:40:46 10° NNE
Meteor 1-13 Rocket 4.4 21:29:41 10° S 21:35:36 88° W 21:41:36 10° N
Cosmos 1937 Rocket 3.9 21:31:21 10° NNW 21:36:24 59° WSW 21:41:27 10° S
Cosmos 1464 Rocket 4.1 21:31:27 10° S 21:37:44 64° E 21:44:02 10° NNE
Cosmos 1763 Rocket 3.9 21:34:32 10° SSW 21:39:49 69° WNW 21:45:06 10° NNE
Cosmos 1455 Rocket 3.0 21:36:06 10° N 21:40:30 88° E 21:44:21 13° S
SPOT 5 3.6 21:37:55 17° SE 21:40:46 35° ENE 21:44:58 10° N
USA 245 3.8 21:38:32 19° SE 21:40:56 48° ENE 21:45:19 10° N
Terra 3.5 21:38:20 12° ESE 21:41:08 20° ENE 21:44:34 10° NNE
Cosmos 2298 Rocket 4.3 21:36:55 10° NNW 21:42:12 68° WSW 21:46:59 12° S
Cosmos 841 Rocket 3.6 21:41:06 10° SSW 21:46:20 86° WNW 21:51:39 10° NNE
Meteor 1-15 Rocket 4.4 21:42:50 10° N 21:48:31 60° ENE 21:52:34 19° SSE
Abrixas rocket 3.6 21:47:43 10° W 21:50:47 39° NNW 21:53:51 10° ENE
Helios 1A 3.4 21:51:28 22° SE 21:53:49 48° ENE 21:57:51 10° N
Okean 2 4.0 21:52:12 23° SE 21:54:16 38° E 21:58:09 10° NNE
USA 32 4.2 21:49:10 10° N 21:54:24 73° W 21:59:24 11° S
CZ-2C R/B 4.5 21:51:56 10° NE 21:54:53 14° E 21:56:06 13° ESE
Cosmos 2360 Rocket 2.2 21:49:14 10° NNW 21:54:55 87° WSW 21:58:58 20° SSE
Cosmos 372 Rocket 4.2 21:50:19 10° NNW 21:55:23 57° ENE 21:58:30 23° SE
Cosmos 1891 Rocket 4.5 21:49:29 10° S 21:55:42 78° E 22:02:05 10° N
BREEZE M DEB (TANK) 3.4 21:46:56 10° WNW 21:56:31 56° SW 21:58:38 24° SSE
ISS -1.1 21:55:11 10° WNW 21:57:46 21° N 22:00:20 10° NE
Cosmos 2219 Rocket 3.3 21:53:09 10° N 21:58:09 32° NE 22:01:38 17° ESE
USA 234 3.3 21:51:58 10° NE 21:58:34 86° NW 22:05:08 10° SW
Tiangong 2 0.9 21:55:28 10° W 21:58:38 84° S 22:00:15 26° E
Shenzhou-11 Module 2.9 21:57:57 10° W 22:00:40 31° SSW 22:01:05 30° S
Cosmos 1356 Rocket 3.9 22:05:19 27° SSE 22:07:08 43° E 22:11:14 10° NNE
Cosmos 1544 Rocket 4.5 22:03:41 10° NNW 22:07:56 46° W 22:11:45 12° SSW
ERS-1 Rocket 3.1 22:07:42 19° S 22:11:18 72° WSW 22:16:21 10° NNW
Helios 1B rocket 2.6 22:13:44 10° NNE 22:17:47 52° E 22:19:16 33° SSE
SJ 16-02 1.4 22:13:49 10° NNW 22:18:16 77° WSW 22:20:27 29° S
CZ-2C R/B 4.1 22:16:09 23° ESE 22:18:49 37° ENE 22:23:57 10° N
Iridium 90 3.8 22:19:03 58° WNW 22:19:03 58° WNW 22:21:04 10° N
Cosmos 2333 Rocket 2.8 22:19:19 10° NNW 22:24:48 45° ENE 22:27:41 26° ESE
Cosmos 1536 Rocket 4.3 22:21:53 11° SSW 22:26:03 51° WNW 22:30:26 10° N
SL-16 R/B 4.5 22:23:39 10° NNE 22:26:30 14° NE 22:29:21 10° ENE
CENTAUR R/B 3.3 22:21:32 10° SW 22:27:29 56° NW 22:34:23 10° NNE
COSMOS 2428 2.7 22:22:10 10° NNW 22:27:52 73° ENE 22:30:38 31° SE
Okean 1-7 Rocket 4.2 22:27:08 34° SE 22:28:21 42° E 22:32:37 10° NNE
SPOT 1/Viking Rocket 3.5 22:26:20 28° S 22:29:10 82° WSW 22:34:22 10° NNW
IGS 5A 3.6 22:28:32 39° SE 22:29:52 62° ENE 22:34:00 10° N
Meteor 1-29 3.1 22:27:32 10° NNE 22:30:58 52° E 22:31:16 51° ESE
CZ-4C R/B 3.0 22:23:48 10° NW 22:30:59 76° NE 22:35:47 27° SE
H-2A R/B 3.2 22:29:02 14° SSW 22:32:47 36° W 22:37:28 10° NNW
Cosmos 1125 Rocket 3.6 22:30:21 10° NNW 22:35:36 71° WSW 22:38:03 32° S
Lacrosse 5 rocket 2.0 22:33:06 10° WNW 22:37:08 40° SW 22:38:05 35° SSW
Cosmos 1092 Rocket 4.0 22:36:19 10° N 22:42:42 82° E 22:45:55 32° SSE
Nadezhda 4 Rocket 4.2 22:37:56 10° NNW 22:44:12 68° W 22:48:06 24° S
Cosmos 2297 Rocket 3.4 22:44:24 24° ESE 22:44:32 24° ESE 22:48:55 10° NE
Cosmos 2227 Rocket 3.1 22:47:43 28° ESE 22:48:05 28° ESE 22:52:51 10° NE
Cosmos 2058 Rocket 3.9 22:45:49 10° N 22:50:01 36° ENE 22:50:47 33° E
Cosmos 2237 Rocket 2.9 22:48:42 10° NNW 22:54:08 43° ENE 22:56:28 29° ESE
CARTOSAT-1 3.7 22:56:13 45° SSW 22:57:23 67° WSW 23:01:42 10° NNW
Landsat 7 4.4 22:57:52 32° SSW 22:59:44 49° W 23:04:23 10° NNW
NOSS 0 Rocket 4.0 22:53:56 10° NNW 23:00:11 68° ENE 23:02:42 37° SE
Cosmos 1066 Rocket 4.3 22:58:35 27° SSW 23:01:36 69° WNW 23:07:04 10° N
Cosmos 773 Rocket 4.4 23:02:46 39° ESE 23:03:09 40° ESE 23:07:56 10° NE
Cosmos 1025 Rocket 4.1 23:04:19 22° SW 23:06:38 41° WNW 23:10:48 10° N
SAR-Lupe-4 4.2 23:09:37 45° ENE 23:09:37 45° ENE 23:12:53 10° N
Cosmos 2026 Rocket 3.9 23:04:50 10° N 23:11:01 86° E 23:13:15 42° S
Cosmos 1544 3.8 23:11:43 10° NNW 23:15:16 44° W 23:15:35 42° WSW
Cosmos 1606 Rocket 3.7 23:11:03 10° NNW 23:15:29 70° W 23:16:17 55° SSW
Cosmos 2279 Rocket 4.0 23:14:02 43° SSE 23:16:05 66° E 23:22:14 10° NNE
Terra 2.4 23:17:13 38° SW 23:18:31 49° W 23:23:09 10° NNW
Meteor 1-21 4.2 23:17:13 49° SSE 23:18:40 69° E 23:24:16 10° NNE
SPOT 5 4.5 23:17:08 18° SW 23:18:57 23° W 23:22:37 10° NW
Cosmos 1655 Rocket 4.1 23:13:49 10° N 23:20:12 68° E 23:22:14 44° SE
Cosmos 2219 3.4 23:16:32 23° SW 23:20:15 70° WNW 23:26:01 10° NNE
Cosmos 1766 3.3 23:17:42 10° NNW 23:21:41 71° W 23:21:51 70° WSW
Meteor 1-22 Rocket 4.2 23:19:07 10° NNW 23:24:25 66° W 23:25:51 46° SSW
SAR-Lupe-1 4.4 23:27:45 58° NE 23:27:45 58° NE 23:30:55 10° N
Abrixas rocket 3.8 23:24:42 10° WNW 23:27:40 32° N 23:28:17 29° NNE
Iridium 4 Rocket 3.9 23:29:50 48° SE 23:31:06 59° E 23:36:54 10° N
ISS -1.2 23:32:29 10° NW 23:35:03 21° N 23:36:54 14° NE
Cosmos 1733 3.9 23:31:27 10° N 23:34:45 44° NE 23:34:45 44° NE
Tiangong 2 4.0 23:32:14 10° W 23:32:27 12° W 23:32:27 12° W
CZ-2C R/B 2.7 23:30:09 10° NNE 23:35:48 81° WNW 23:37:37 45° SSW
Mayak 0.2 23:34:07 10° NE 23:37:00 26° ENE 23:37:00 26° ENE
Cosmos 2084 Rocket 3.4 23:35:47 10° NW 23:39:33 70° NNE 23:39:33 70° NNE
Cosmos 1428 Rocket 4.5 23:35:32 10° NNW 23:41:38 73° W 23:43:29 47° SSW
Cosmos 1818 3.8 23:42:14 49° ESE 23:42:14 49° ESE 23:47:24 10° NE
Cosmos 2219 Rocket 2.9 23:36:59 10° NW 23:42:10 40° WSW 23:43:21 36° SW
Cosmos 1758 3.5 23:39:12 10° N 23:43:02 68° NE 23:43:02 68° NE
H-2A R/B 3.4 23:43:33 27° ENE 23:43:56 27° ENE 23:47:32 10° N
Spot 4 3.9 23:48:10 59° SW 23:48:43 65° WSW 23:53:33 10° NNW
Intercosmos 25 4.1 23:52:28 44° W 23:52:44 45° W 23:56:05 10° N
CZ-4 R/B 3.8 23:48:56 10° NNE 23:53:59 76° ESE 23:54:22 71° SSE
Cosmos 1805 4.3 23:52:23 10° NNW 23:55:51 38° W 23:55:51 38° W
